| time (UTC) | temp F | wind direction | speed knots | gust knots | rain 1hr in | rain 24hr in | rain mn in | humidity % | barometer mb |
| 20260503181143 | 55 | 245 | 3.5 | 7.0 | 0.00 | 0.00 | 0.00 | 81 | 1013.1 |
| 20260503180640 | 55 | 252 | 3.5 | 7.0 | 0.00 | 0.00 | 0.00 | 82 | 1013.1 |
| 20260503180132 | 54 | 264 | 2.6 | 3.5 | 0.00 | 0.00 | 0.00 | 82 | 1013.2 |
| 20260503175623 | 55 | 278 | 6.1 | 8.7 | 0.00 | 0.00 | 0.00 | 82 | 1013.3 |
| 20260503175120 | 54 | 260 | 7.0 | 8.7 | 0.00 | 0.00 | 0.00 | 83 | 1013.2 |
| 20260503174617 | 54 | 256 | 0.9 | 7.0 | 0.00 | 0.00 | 0.00 | 85 | 1013.1 |
| 20260503174114 | 54 | 249 | 1.7 | 4.3 | 0.00 | 0.00 | 0.00 | 85 | 1013.3 |
| 20260503173609 | 55 | 252 | 2.6 | 4.3 | 0.00 | 0.00 | 0.00 | 84 | 1013.1 |
| 20260503173106 | 56 | 249 | 0.9 | 2.6 | 0.00 | 0.00 | 0.00 | 83 | 1013.0 |
| 20260503172603 | 55 | 267 | 2.6 | 3.5 | 0.00 | 0.00 | 0.00 | 83 | 1013.0 |
| 20260503172100 | 55 | 247 | 1.7 | 3.5 | 0.00 | 0.00 | 0.00 | 86 | 1013.0 |
| 20260503171556 | 55 | 235 | 2.6 | 4.3 | 0.00 | 0.00 | 0.00 | 86 | 1012.9 |
| 20260503171054 | 54 | 246 | 0.9 | 3.5 | 0.00 | 0.00 | 0.00 | 87 | 1012.8 |
| 20260503170549 | 54 | 253 | 0.9 | 0.9 | 0.00 | 0.00 | 0.00 | 88 | 1012.9 |
| 20260503150942 | 52 | 229 | 0.9 | 0.9 | 0.00 | 0.00 | 0.00 | 94 | 1012.2 |
| 20260503150433 | 52 | 247 | 0.0 | 2.6 | 0.00 | 0.00 | 0.00 | 95 | 1012.2 |
| 20260503131326 | 51 | 243 | 0.0 | 0.0 | 0.00 | 0.00 | 0.00 | 98 | 1010.7 |
| 20260503130824 | 51 | 252 | 0.9 | 2.6 | 0.00 | 0.00 | 0.00 | 98 | 1010.6 |
| 20260503130321 | 51 | 238 | 0.9 | 0.9 | 0.00 | 0.00 | 0.00 | 98 | 1010.6 |
| 20260503110709 | 51 | 274 | 0.0 | 0.0 | 0.00 | 0.00 | 0.00 | 98 | 1010.6 |
| 20260503110206 | 51 | 253 | 0.0 | 0.0 | 0.00 | 0.00 | 0.00 | 98 | 1010.8 |
| 20260503100132 | 51 | 238 | 0.0 | 0.0 | 0.00 | 0.00 | 0.00 | 98 | 1010.6 |
| 20260503081516 | 51 | 249 | 0.0 | 0.0 | 0.00 | 0.00 | 0.00 | 95 | 1011.6 |
| 20260503081013 | 51 | 249 | 0.0 | 0.0 | 0.00 | 0.00 | 0.00 | 95 | 1011.6 |
| 20260503080509 | 51 | 248 | 0.0 | 0.0 | 0.00 | 0.00 | 0.00 | 94 | 1011.5 |
| 20260503072443 | 51 | 260 | 0.0 | 0.0 | 0.00 | 0.00 | 0.00 | 96 | 1011.7 |
| 20260503071940 | 51 | 264 | 0.0 | 0.0 | 0.00 | 0.00 | 0.00 | 96 | 1011.7 |
| 20260503071437 | 51 | 264 | 0.0 | 0.0 | 0.00 | 0.00 | 0.00 | 96 | 1011.7 |
| 20260503070933 | 51 | 264 | 0.0 | 0.0 | 0.00 | 0.00 | 0.00 | 96 | 1011.7 |
| 20260503070430 | 51 | 257 | 0.0 | 0.0 | 0.00 | 0.00 | 0.00 | 96 | 1011.6 |
| 20260503054843 | 51 | 231 | 0.0 | 0.0 | 0.00 | 0.00 | 0.00 | 95 | 1012.1 |
| 20260503054339 | 51 | 238 | 0.0 | 0.0 | 0.00 | 0.00 | 0.00 | 95 | 1012.0 |
| 20260503053837 | 51 | 257 | 0.0 | 0.0 | 0.00 | 0.00 | 0.00 | 94 | 1012.1 |
| 20260503053336 | 51 | 247 | 0.0 | 0.0 | 0.00 | 0.00 | 0.00 | 94 | 1012.2 |
| 20260503052831 | 51 | 238 | 0.0 | 0.0 | 0.00 | 0.00 | 0.00 | 94 | 1012.1 |
| 20260503052329 | 51 | 260 | 0.0 | 0.0 | 0.00 | 0.00 | 0.00 | 94 | 1012.2 |
| 20260503051825 | 52 | 247 | 0.0 | 0.0 | 0.00 | 0.00 | 0.00 | 94 | 1012.3 |
| 20260503051321 | 52 | 253 | 0.0 | 0.0 | 0.00 | 0.00 | 0.00 | 94 | 1012.2 |
| 20260503050818 | 52 | 261 | 0.0 | 0.9 | 0.00 | 0.00 | 0.00 | 94 | 1012.1 |
| 20260503050314 | 52 | 247 | 0.0 | 0.0 | 0.00 | 0.00 | 0.00 | 94 | 1012.2 |
| 20260503045812 | 51 | 263 | 0.0 | 0.9 | 0.00 | 0.00 | 0.00 | 94 | 1012.2 |
| 20260503045310 | 51 | 268 | 0.0 | 0.9 | 0.00 | 0.00 | 0.00 | 93 | 1012.2 |
| 20260503044806 | 52 | 243 | 0.0 | 0.0 | 0.00 | 0.00 | 0.00 | 93 | 1012.1 |
| 20260503044303 | 52 | 237 | 0.0 | 3.5 | 0.00 | 0.00 | 0.00 | 93 | 1012.1 |
| 20260503043800 | 52 | 239 | 0.0 | 0.0 | 0.00 | 0.00 | 0.00 | 93 | 1012.1 |
| 20260503043257 | 52 | 254 | 0.0 | 0.9 | 0.00 | 0.00 | 0.00 | 93 | 1012.2 |
| 20260503042753 | 52 | 264 | 0.0 | 0.9 | 0.00 | 0.00 | 0.00 | 92 | 1012.1 |
| 20260503042250 | 52 | 253 | 0.0 | 0.9 | 0.00 | 0.00 | 0.00 | 92 | 1012.0 |
| 20260503041745 | 52 | 223 | 0.9 | 0.9 | 0.00 | 0.00 | 0.00 | 92 | 1012.0 |
| 20260503041244 | 52 | 228 | 1.7 | 2.6 | 0.00 | 0.00 | 0.00 | 91 | 1012.0 |
| 20260503040741 | 52 | 253 | 0.0 | 2.6 | 0.00 | 0.00 | 0.00 | 91 | 1011.9 |
| 20260503040239 | 52 | 255 | 0.0 | 0.9 | 0.00 | 0.00 | 0.00 | 91 | 1012.0 |
| 20260503035735 | 52 | 257 | 0.0 | 0.0 | 0.00 | 0.00 | 0.00 | 91 | 1011.8 |
| 20260503035232 | 52 | 251 | 0.0 | 0.0 | 0.00 | 0.00 | 0.00 | 91 | 1011.7 |
| 20260503034730 | 52 | 245 | 0.0 | 0.9 | 0.00 | 0.00 | 0.00 | 91 | 1011.7 |
| 20260503034226 | 52 | 253 | 0.0 | 0.0 | 0.00 | 0.00 | 0.00 | 90 | 1011.6 |
| 20260503033724 | 52 | 272 | 0.0 | 0.9 | 0.00 | 0.00 | 0.00 | 90 | 1011.7 |
| 20260503033221 | 52 | 259 | 0.0 | 0.9 | 0.00 | 0.00 | 0.00 | 90 | 1011.6 |
| 20260503032720 | 52 | 294 | 0.0 | 0.9 | 0.00 | 0.00 | 0.00 | 90 | 1011.4 |
| 20260503032218 | 52 | 259 | 0.0 | 0.0 | 0.00 | 0.00 | 0.00 | 90 | 1011.2 |
| 20260503031714 | 52 | 246 | 0.0 | 0.9 | 0.00 | 0.00 | 0.00 | 90 | 1011.5 |
| 20260503031213 | 52 | 259 | 1.7 | 3.5 | 0.00 | 0.00 | 0.00 | 89 | 1011.4 |
| 20260503030708 | 52 | 245 | 0.0 | 2.6 | 0.00 | 0.00 | 0.00 | 90 | 1011.4 |
| 20260503030205 | 52 | 237 | 1.7 | 3.5 | 0.00 | 0.00 | 0.00 | 90 | 1011.4 |
| 20260503025702 | 52 | 273 | 0.0 | 0.0 | 0.00 | 0.00 | 0.00 | 90 | 1011.2 |
| 20260503025200 | 52 | 269 | 2.6 | 3.5 | 0.00 | 0.00 | 0.00 | 89 | 1011.5 |
| 20260503024656 | 53 | 251 | 0.0 | 0.0 | 0.00 | 0.00 | 0.00 | 89 | 1011.5 |
| 20260503024154 | 53 | 253 | 0.0 | 0.0 | 0.00 | 0.00 | 0.00 | 89 | 1011.5 |
| 20260503023650 | 53 | 265 | 0.0 | 0.0 | 0.00 | 0.00 | 0.00 | 89 | 1011.5 |
| 20260503023147 | 53 | 260 | 0.0 | 2.6 | 0.00 | 0.00 | 0.00 | 89 | 1011.4 |
| 20260503022644 | 53 | 239 | 0.0 | 0.0 | 0.00 | 0.00 | 0.00 | 88 | 1011.4 |
| 20260503022143 | 53 | 241 | 0.0 | 0.0 | 0.00 | 0.00 | 0.00 | 88 | 1011.4 |
| 20260503021640 | 53 | 290 | 1.7 | 4.3 | 0.00 | 0.00 | 0.00 | 88 | 1011.5 |
| 20260503021136 | 53 | 267 | 0.9 | 2.6 | 0.00 | 0.00 | 0.00 | 88 | 1011.6 |
| 20260503020634 | 53 | 264 | 2.6 | 6.1 | 0.00 | 0.00 | 0.00 | 88 | 1011.6 |
| 20260503020131 | 53 | 237 | 1.7 | 2.6 | 0.00 | 0.00 | 0.00 | 87 | 1011.6 |
| 20260503015628 | 53 | 255 | 2.6 | 4.3 | 0.00 | 0.00 | 0.00 | 86 | 1011.6 |
| 20260503015125 | 54 | 263 | 0.9 | 2.6 | 0.00 | 0.00 | 0.00 | 87 | 1011.7 |
| 20260503014620 | 54 | 269 | 1.7 | 4.3 | 0.00 | 0.00 | 0.00 | 86 | 1011.7 |
| 20260503014118 | 54 | 258 | 1.7 | 4.3 | 0.00 | 0.00 | 0.00 | 86 | 1011.7 |
| 20260503013615 | 54 | 244 | 2.6 | 6.1 | 0.00 | 0.00 | 0.00 | 85 | 1011.8 |
| 20260503013114 | 54 | 265 | 1.7 | 3.5 | 0.00 | 0.00 | 0.00 | 86 | 1011.9 |
| 20260503012611 | 54 | 271 | 2.6 | 3.5 | 0.00 | 0.00 | 0.00 | 85 | 1011.8 |
| 20260503012107 | 55 | 261 | 1.7 | 4.3 | 0.00 | 0.00 | 0.00 | 84 | 1011.8 |
| 20260503011603 | 55 | 252 | 0.9 | 2.6 | 0.00 | 0.00 | 0.00 | 84 | 1011.8 |
| 20260503011101 | 55 | 233 | 0.0 | 0.9 | 0.00 | 0.00 | 0.00 | 85 | 1011.8 |
| 20260503010557 | 54 | 251 | 0.0 | 4.3 | 0.00 | 0.00 | 0.00 | 86 | 1011.8 |
| 20260503010055 | 54 | 253 | 1.7 | 3.5 | 0.00 | 0.00 | 0.00 | 86 | 1011.8 |
| 20260503005551 | 54 | 228 | 1.7 | 9.6 | 0.00 | 0.00 | 0.00 | 85 | 1011.8 |
| 20260503005049 | 55 | 262 | 1.7 | 6.1 | 0.00 | 0.00 | 0.00 | 85 | 1011.9 |
| 20260503004544 | 55 | 288 | 1.7 | 7.0 | 0.00 | 0.00 | 0.00 | 85 | 1011.9 |
| 20260503004043 | 55 | 267 | 2.6 | 6.1 | 0.00 | 0.00 | 0.00 | 85 | 1011.9 |
| 20260503003539 | 55 | 258 | 0.0 | 6.1 | 0.00 | 0.00 | 0.00 | 84 | 1011.9 |
| 20260503003037 | 55 | 238 | 1.7 | 7.0 | 0.00 | 0.00 | 0.00 | 85 | 1011.9 |
| 20260503002533 | 55 | 235 | 3.5 | 7.0 | 0.00 | 0.00 | 0.00 | 85 | 1011.9 |
| 20260503002030 | 55 | 242 | 3.5 | 4.3 | 0.00 | 0.00 | 0.00 | 84 | 1012.0 |
| 20260503001527 | 55 | 262 | 4.3 | 8.7 | 0.00 | 0.00 | 0.00 | 84 | 1011.9 |
| 20260503001024 | 55 | 255 | 1.7 | 3.5 | 0.00 | 0.00 | 0.00 | 84 | 1011.9 |
| 20260503000522 | 56 | 252 | 2.6 | 8.7 | 0.00 | 0.00 | 0.00 | 84 | 1011.9 |
| 20260503000018 | 56 | 260 | 4.3 | 4.3 | 0.00 | 0.00 | 0.00 | 83 | 1011.9 |
| 20260502235515 | 56 | 239 | 4.3 | 9.6 | 0.00 | 0.00 | 0.00 | 84 | 1011.9 |
| 20260502235013 | 56 | 260 | 5.2 | 8.7 | 0.00 | 0.00 | 0.00 | 82 | 1012.0 |
| 20260502234509 | 57 | 246 | 2.6 | 6.1 | 0.00 | 0.00 | 0.00 | 82 | 1012.0 |
| 20260502234007 | 58 | 250 | 0.9 | 3.5 | 0.00 | 0.00 | 0.00 | 81 | 1012.0 |
| 20260502233506 | 58 | 255 | 2.6 | 8.7 | 0.00 | 0.00 | 0.00 | 82 | 1011.9 |
| 20260502233004 | 59 | 251 | 2.6 | 6.1 | 0.00 | 0.00 | 0.00 | 81 | 1011.9 |
| 20260502232500 | 59 | 275 | 3.5 | 3.5 | 0.00 | 0.00 | 0.00 | 80 | 1012.1 |
| 20260502231957 | 58 | 250 | 0.9 | 3.5 | 0.00 | 0.00 | 0.00 | 80 | 1012.3 |
| 20260502231454 | 58 | 287 | 1.7 | 3.5 | 0.00 | 0.00 | 0.00 | 81 | 1012.3 |
| 20260502230952 | 58 | 275 | 1.7 | 4.3 | 0.00 | 0.00 | 0.00 | 81 | 1012.2 |
| 20260502230450 | 58 | 251 | 0.0 | 3.5 | 0.00 | 0.00 | 0.00 | 82 | 1012.3 |
| 20260502225947 | 58 | 263 | 0.0 | 4.3 | 0.00 | 0.00 | 0.00 | 82 | 1012.4 |
| 20260502225444 | 58 | 283 | 2.6 | 3.5 | 0.00 | 0.00 | 0.00 | 82 | 1012.3 |
| 20260502224941 | 58 | 262 | 1.7 | 2.6 | 0.00 | 0.00 | 0.00 | 82 | 1012.5 |
| 20260502224437 | 58 | 253 | 1.7 | 3.5 | 0.00 | 0.00 | 0.00 | 82 | 1012.5 |
| 20260502223934 | 58 | 227 | 0.0 | 3.5 | 0.00 | 0.00 | 0.00 | 84 | 1012.6 |
| 20260502223432 | 57 | 247 | 1.7 | 3.5 | 0.00 | 0.00 | 0.00 | 83 | 1012.7 |
| 20260502222930 | 57 | 265 | 2.6 | 2.6 | 0.00 | 0.00 | 0.00 | 84 | 1012.7 |
| 20260502222427 | 57 | 275 | 0.9 | 3.5 | 0.00 | 0.00 | 0.00 | 84 | 1012.7 |
| 20260502221922 | 56 | 264 | 2.6 | 3.5 | 0.00 | 0.00 | 0.00 | 85 | 1012.7 |
| 20260502221419 | 56 | 249 | 1.7 | 8.7 | 0.00 | 0.00 | 0.00 | 87 | 1012.8 |
| 20260502220917 | 57 | 261 | 4.3 | 7.0 | 0.00 | 0.00 | 0.00 | 86 | 1012.8 |
| 20260502220412 | 57 | 251 | 7.8 | 9.6 | 0.00 | 0.00 | 0.00 | 86 | 1012.9 |
| 20260502215909 | 59 | 247 | 6.1 | 9.6 | 0.00 | 0.00 | 0.00 | 85 | 1012.8 |
| 20260502215407 | 59 | 265 | 0.0 | 2.6 | 0.00 | 0.00 | 0.00 | 84 | 1012.8 |
| 20260502214903 | 59 | 268 | 2.6 | 3.5 | 0.00 | 0.00 | 0.00 | 83 | 1013.0 |
| 20260502214400 | 58 | 266 | 0.0 | 2.6 | 0.00 | 0.00 | 0.00 | 85 | 1013.0 |
| 20260502213857 | 57 | 243 | 2.6 | 4.3 | 0.00 | 0.00 | 0.00 | 85 | 1013.0 |
| 20260502213354 | 57 | 291 | 0.9 | 6.1 | 0.00 | 0.00 | 0.00 | 86 | 1013.0 |
| 20260502212853 | 57 | 255 | 4.3 | 7.0 | 0.00 | 0.00 | 0.00 | 86 | 1013.1 |
| 20260502212351 | 58 | 275 | 1.7 | 3.5 | 0.00 | 0.00 | 0.00 | 86 | 1013.1 |
| 20260502211848 | 58 | 246 | 0.0 | 2.6 | 0.00 | 0.00 | 0.00 | 85 | 1013.3 |
| 20260502211343 | 58 | 245 | 0.9 | 3.5 | 0.00 | 0.00 | 0.00 | 86 | 1013.3 |
| 20260502210841 | 57 | 271 | 1.7 | 3.5 | 0.00 | 0.00 | 0.00 | 87 | 1013.3 |
| 20260502210338 | 56 | 248 | 4.3 | 6.1 | 0.00 | 0.00 | 0.00 | 88 | 1013.2 |
| 20260502205835 | 57 | 262 | 2.6 | 4.3 | 0.00 | 0.00 | 0.00 | 86 | 1013.3 |
| 20260502205331 | 57 | 262 | 0.9 | 4.3 | 0.00 | 0.00 | 0.00 | 87 | 1013.4 |
| 20260502204828 | 58 | 262 | 6.1 | 8.7 | 0.00 | 0.00 | 0.00 | 86 | 1013.4 |
| 20260502204326 | 58 | 234 | 5.2 | 6.1 | 0.00 | 0.00 | 0.00 | 86 | 1013.3 |
| 20260502203823 | 58 | 239 | 0.0 | 0.9 | 0.00 | 0.00 | 0.00 | 85 | 1013.3 |
| 20260502203321 | 58 | 263 | 2.6 | 4.3 | 0.00 | 0.00 | 0.00 | 86 | 1013.4 |
| 20260502202820 | 57 | 243 | 1.7 | 3.5 | 0.00 | 0.00 | 0.00 | 87 | 1013.5 |
| 20260502202319 | 58 | 256 | 2.6 | 8.7 | 0.00 | 0.00 | 0.00 | 87 | 1013.5 |
| 20260502201816 | 59 | 240 | 0.0 | 3.5 | 0.00 | 0.00 | 0.00 | 85 | 1013.4 |
| 20260502201312 | 58 | 255 | 2.6 | 4.3 | 0.00 | 0.00 | 0.00 | 86 | 1013.4 |
| 20260502200808 | 59 | 265 | 1.7 | 6.1 | 0.00 | 0.00 | 0.00 | 85 | 1013.4 |
| 20260502200304 | 59 | 265 | 0.9 | 3.5 | 0.00 | 0.00 | 0.00 | 83 | 1013.5 |
| 20260502195803 | 58 | 235 | 4.3 | 6.1 | 0.00 | 0.00 | 0.00 | 85 | 1013.5 |
| 20260502195259 | 60 | 264 | 4.3 | 4.3 | 0.00 | 0.00 | 0.00 | 82 | 1013.6 |
| 20260502194755 | 60 | 277 | 0.9 | 3.5 | 0.00 | 0.00 | 0.00 | 82 | 1013.5 |
| 20260502194253 | 59 | 271 | 0.9 | 3.5 | 0.00 | 0.00 | 0.00 | 84 | 1013.5 |
| 20260502193748 | 59 | 333 | 0.0 | 2.6 | 0.00 | 0.00 | 0.00 | 83 | 1013.5 |
| 20260502193246 | 59 | 271 | 2.6 | 2.6 | 0.00 | 0.00 | 0.00 | 82 | 1013.5 |
| 20260502192746 | 58 | 266 | 0.9 | 4.3 | 0.00 | 0.00 | 0.00 | 83 | 1013.6 |
| 20260502192238 | 59 | 247 | 3.5 | 4.3 | 0.00 | 0.00 | 0.00 | 81 | 1013.6 |
| 20260502191735 | 60 | 254 | 0.9 | 4.3 | 0.00 | 0.00 | 0.00 | 81 | 1013.7 |
| 20260502191233 | 59 | 265 | 0.0 | 2.6 | 0.00 | 0.00 | 0.00 | 82 | 1013.6 |
| 20260502190730 | 58 | 259 | 2.6 | 7.0 | 0.00 | 0.00 | 0.00 | 84 | 1013.7 |
| 20260502190227 | 58 | 129 | 2.6 | 3.5 | 0.00 | 0.00 | 0.00 | 84 | 1013.6 |
| 20260502185727 | 59 | 257 | 3.5 | 3.5 | 0.00 | 0.00 | 0.00 | 83 | 1013.6 |
| 20260502185224 | 59 | 243 | 0.0 | 0.0 | 0.00 | 0.00 | 0.00 | 83 | 1013.5 |
| 20260502184720 | 59 | 178 | 0.9 | 3.5 | 0.00 | 0.00 | 0.00 | 83 | 1013.6 |
| 20260502184216 | 58 | 267 | 0.0 | 0.9 | 0.00 | 0.00 | 0.00 | 84 | 1013.5 |
| 20260502183713 | 57 | 245 | 2.6 | 3.5 | 0.00 | 0.00 | 0.00 | 85 | 1013.6 |
| 20260502183208 | 57 | 256 | 4.3 | 6.1 | 0.00 | 0.00 | 0.00 | 86 | 1013.6 |
| 20260502182704 | 58 | 255 | 2.6 | 6.1 | 0.00 | 0.00 | 0.00 | 84 | 1013.6 |
| 20260502182200 | 58 | 262 | 0.0 | 0.9 | 0.00 | 0.00 | 0.00 | 86 | 1013.6 |
| 20260502181657 | 56 | 250 | 0.0 | 2.6 | 0.00 | 0.00 | 0.00 | 88 | 1013.6 |